Погода в Полануре

Россия / Республика Марий Эл     56°55′19″N   49°10′16″E
темп.,
°C
ветер,
м/с
пор.,
м/с
влажн.,
%
обл.,
%
осадки,
мм/ч
давл.,
гПа
погр.,
м
26 октября, вт
вт2600:00−2зюз41080100 0.0 1023349
03:00−1юз61375100 0.0 1022559
06:00−2юз71492100 0.6 1020573
09:000зюз81589100 1.1 1019595
12:00+2зюз7127385 0.0 1018713
15:00+2зюз61283100 0.0 1018621
18:00+2зюз61282100 0.0 1018483
21:000зюз6128780 0.0 1018360
27 октября, ср
ср2700:00−1юз51190100 0.0 1017289
03:00−1юз51189100 0.0 1017291
06:00−1юз51189100 0.0 1016292
09:00+1юз61180100 0.0 1015449
12:00+3юз61174100 0.0 1013558
15:00+3юз61372100 0.0 1012570
18:00+2юз71574100 0.0 1010460
21:00+3юз71573100 0.0 1008578
28 октября, чт
чт2800:00+3юз71474100 0.0 1006721
03:00+2зюз71397100 0.9 1005794
06:00+3зюз71497100 0.9 1005851
09:00+4з71292100 1.0 1007844
12:00+4з71190100 0.3 1008896
15:00+6з71282100 0.4 1008809
18:00+5з61085100 0.0 1009615
21:00+2ссз4897100 0.7 1011419
29 октября, пт
пт2900:000с687499 0.6 1013686
03:00−4с6118031 0.6 1017628
06:00−5с61177100 0.0 1021792
09:00−4с710645 0.0 1024792
12:00−2ссв68490 0.0 1027836
15:00−2ссв46510 0.0 1030660
18:00−4св11637 0.0 103110
21:00−4ююз2263100 0.0 103232
30 октября, сб
сб3000:00−4ююз51063100 0.0 1030337
03:00−2юз71655100 0.1 1028543
06:00−1юз91950100 0.4 1024646
09:00+1зюз81765100 0.4 1023553
12:00+3з71478100 0.0 1023475
15:00+3з61290100 0.0 1024381
18:00+4з51295100 0.0 1024309
21:00+4зюз51096100 0.0 1025267